Погода в Лиере

Норвегия     59°48′55″N   10°16′06″E
темп.,
°C
ветер,
м/с
пор.,
м/с
влажн.,
%
обл.,
%
осадки,
мм/ч
давл.,
гПа
погр.,
м
18 сентября, сб
сб1823:00+8ссв1474100 0.0 1024271
02:00+8ссв1475100 0.0 1024236
05:00+8св1279100 0.0 1024102
08:00+7св1181100 0.0 1024133
11:00+9в136762 0.0 1025812
14:00+11в2354100 0.0 10251359
17:00+11вюв2358100 0.0 10251016
20:00+9в116999 0.0 102514
19 сентября, вс
вс1923:00+8в1172100 0.0 102619
02:00+8в1178100 0.0 102619
05:00+8в118092 0.0 102622
08:00+8в1180100 0.0 102795
11:00+9вюв1368100 0.0 1027613
14:00+11юв125451 0.0 10271187
17:00+11ю225092 0.0 10261087
20:00+8юз1164100 0.0 102610
20 сентября, пн
пн2023:00+8ююв1268100 0.0 102760
02:00+7в1169100 0.0 102818
05:00+7св1170100 0.0 102823
08:00+7св1272100 0.0 1028109
11:00+8всв1259100 0.0 1029520
14:00+9вюв1252100 0.0 10281199
17:00+9вюв1153100 0.0 1027949
20:00+7юв1164100 0.0 102814
21 сентября, вт
вт2123:00+7ююв2368100 0.0 102795
02:00+5ю1276100 0.0 102636
05:00+5ю2280100 0.0 102557
08:00+5юз1279100 0.0 102498
11:00+8юз1269100 0.0 1023350
14:00+11юз146790 0.1 1022544
17:00+13юз246999 0.1 1020660
20:00+10ююз2485100 0.2 1019121
22 сентября, ср
ср2223:00+10ююз2689100 0.1 1018221
02:00+9ююз2394100 0.1 1017101
05:00+9ююз119478 0.0 101534
08:00+8юз11952 0.0 101420
11:00+14ююз24650 0.0 1012495
14:00+19ююз611470 0.0 10081276
17:00+17ююз714590 0.0 10061227
20:00+13ююз613726 0.0 10051138